Regional Weather Roundup
Issued by NWS

Home | Current Version | Previous Version | Graphics & Text | Print | Product List | Glossary On
Versions: 1 2 3 4 5 6 7 8 9 10 11 12 13 14 15 16 17 18 19 20 21 22 23 24 25 26 27 28 29 30 31 32 33 34 35 36 37 38 39 40 41 42 43 44 45 46 47 48 49 50
000
ASUS43 KDMX 262007
RWRIA

WEATHER ROUNDUP FOR IOWA
NATIONAL WEATHER SERVICE DES MOINES IA
300 PM CDT TUE MAY 26 2015

NOTE: "FAIR" INDICATES FEW OR NO CLOUDS BELOW 12,000 FEET WITH NO
SIGNIFICANT WEATHER AND/OR OBSTRUCTIONS TO VISIBILITY.

* - THESE STATIONS ARE NOT NWS STATIONS...THUS NOT UNDER NWS
QUALITY CONTROL.  THEY ALSO DO NOT REPORT WEATHER SUCH
AS PRECIPITATION OR FOG.

IAZ001>003-012>014-020>022-031>034-043>046-262100-
   NORTHWEST IOWA

CITY           SKY/WX    TMP DP  RH WIND       PRES   REMARKS
CARROLL *      PTSUNNY   68  61  77 NW6       29.78F
CHEROKEE *     CLOUDY    61  61 100 NW9       29.81S
DENISON *      PTSUNNY   66  64  94 W8        29.78S
LE MARS *      CLOUDY    59  55  88 NW9       29.85R
ORANGE CITY *  CLOUDY    57  55  94 N7        29.84R
SHELDON *      CLOUDY    57  57 100 N13       29.82S
SIOUX CITY     CLOUDY    61  55  81 NW14      29.84R
SPENCER        CLOUDY    60  56  86 N9        29.81R
STORM LAKE *   LGT RAIN  61  59  94 NW8       29.81S
$$

IAZ055>058-069>071-079>083-090>094-262100-
   SOUTHWEST IOWA

CITY           SKY/WX    TMP DP  RH WIND       PRES   REMARKS
ATLANTIC *     CLOUDY    68  63  83 NW7G14    29.80R
AUDUBON *      SUNNY     70  63  78 SW8       29.81S
COUNCIL BLFS * MOSUNNY   64  64 100 W13       29.83R
CRESTON *      CLOUDY    68  61  77 SW13      29.82R
HARLAN  *      PTSUNNY   66  66 100 W10       29.84R
LAMONI         LGT RAIN  68  63  84 SW12      29.82S
RED OAK *      CLOUDY    70  63  78 W10G17    29.82R
SHENANDOAH *   CLOUDY    68  63  83 W8        29.83R
$$

IAZ047>049-059>061-072>074-084-262100-
   CENTRAL IOWA

CITY           SKY/WX    TMP DP  RH WIND       PRES   REMARKS
AMES           CLOUDY    67  61  81 SW9       29.80R
ANKENY *       CLOUDY    66  61  82 SW7       29.80R
CHARITON *     PTSUNNY   68  63  83 S8        29.81F
DES MOINES     CLOUDY    69  60  73 SW10      29.80R
GRINNELL*      CLOUDY    68  61  77 SW16      29.80S
KNOXVILLE *    MOSUNNY   70  61  73 SW7       29.79F
MARSHALLTOWN   PTSUNNY   67  59  75 W13       29.77S
PELLA *        SUNNY     72  66  83 SW13      29.81F
PERRY *        CLOUDY    66  61  82 SW8       29.80S
$$

IAZ004>006-015-016-023>025-035-036-262100-
   NORTH CENTRAL IOWA

CITY           SKY/WX    TMP DP  RH WIND       PRES   REMARKS
ALGONA *       MOSUNNY   63  63 100 W5        29.79S
CLARION *      LGT RAIN  61 N/A N/A W7        29.77F
ESTHERVILLE    CLOUDY    59  57  93 NW9       29.80S
FORT DODGE *   CLOUDY    63  57  82 W6        29.79F
MASON CITY     LGT RAIN  66  61  84 W17       29.78S
FOREST CITY *  DRIZZLE   59  59 100 W10       29.78S
IOWA FALLS *   LGT RAIN  64  61  88 SW12      29.78F
$$

IAZ007>011-017>019-026>030-037>042-050>054-066-262100-
   NORTHEAST IOWA

CITY           SKY/WX    TMP DP  RH WIND       PRES   REMARKS
CEDAR RAPIDS   PTSUNNY   68  63  84 W21       29.75R
CHARLES CITY * HVY RAIN  63  63 100 NW9       29.75S
CLINTON *      PTSUNNY   72  61  68 SW24G40   29.75R
DECORAH *      RAIN      63  63 100 VRB7      29.67S VSB 1
DUBUQUE        CLOUDY    69  64  84 SW18G30   29.66F HAZE
MONTICELLO *   PTSUNNY   70  66  88 W20G39    29.71R
OELWEIN *      MOSUNNY   63  61  94 W20G28    29.74R FOG
WATERLOO       LGT RAIN  63  61  93 W14       29.74S FOG
$$

IAZ064-065-067-068-078-262100-
   EAST CENTRAL IOWA

CITY           SKY/WX    TMP DP  RH WIND       PRES   REMARKS
DAVENPORT      CLOUDY    71  60  68 W26G37    29.76R
IOWA CITY      PTSUNNY   71  60  68 W21G28    29.78R
MT. PLEASANT * MOSUNNY   72  63  73 SW21      29.82R
MUSCATINE *    PTSUNNY   75  61  60 W20G31    29.78R
QUAD CITIES    PTSUNNY   73  60  63 W20G30    29.74R
$$

IAZ062-063-075>077-085>089-095>099-262100-
   SOUTHEAST IOWA

CITY           SKY/WX    TMP DP  RH WIND       PRES   REMARKS
BURLINGTON     PTSUNNY   73  63  70 W15G23    29.81R
FAIRFIELD *    PTSUNNY   72  61  68 W17G23    29.81S
FORT MADISON * PTSUNNY   72  63  73 W10G16    29.83S
KEOKUK *       PTSUNNY   73  61  64 W15G25    29.83R
OSKALOOSA *      N/A     70  63  78 W17       29.81S
CENTERVILLE *  MOSUNNY   72  72 100 SW14G20   29.84S
OTTUMWA        PTSUNNY   71  62  73 SW15      29.81R
WASHINGTON *   PTSUNNY   72  61  68 W22G31    29.81R
$$

ABBREVIATIONS USED IN REMARKS
   TC - TEMPERATURES IN CELSIUS
  WCI - WIND CHILL INDEX
   HX - HEAT INDEX
  VSB - VISIBILITY
$$




USA.gov is the U.S. government's official web portal to all federal, state and local government web resources and services.